Regional Weather Roundup
Issued by NWS State College, PA

Home | Current Version | Previous Version | Text Only | Print | Product List | Glossary Off
Versions: 1 2 3 4 5 6 7 8 9 10 11 12 13 14 15 16 17 18 19 20 21 22 23 24 25 26 27 28 29 30 31 32 33 34 35 36 37 38 39 40 41 42 43 44 45 46 47 48 49 50

000
ASUS41 KCTP 251410
RWRCTP

REGIONAL WEATHER ROUNDUP
NATIONAL WEATHER SERVICE STATE COLLEGE PA
1000 AM EDT TUE JUL 25 2017

Note: "fair" indicates few or no clouds below 12,000 feet with no
significant weather and/or obstructions to visibility.

* = STATION THAT DOES NOT REPORT PRECIPITATION /E.G. RAIN...SNOW...ETC/
    THUNDER OR FOG.

PAZ002>004-007>009-013>016-020>023-029>032-251500-
WESTERN PENNSYLVANIA

CITY           SKY/WX    TMP DP  RH WIND       PRES   REMARKS
ERIE           CLOUDY    66  57  72 N10       30.18R
MEADVILLE      CLOUDY    62  60  93 N7        30.20R
FRANKLIN*      CLOUDY    61  55  82 N6        30.19S
NEW CASTLE     CLOUDY    65  59  81 N5        30.20R
BEAVER COUNTY  CLOUDY    63  59  88 NW3       30.19R
BUTLER*        CLOUDY    63  55  77 W5        30.19R
PITTSBURGH INT CLOUDY    65  58  78 NW6       30.19R
PITTSBURGH     CLOUDY    65  55  70 NW7       30.18R
INDIANA*       CLOUDY    63  59  88 NW5       30.20R
LATROBE        CLOUDY    64  57  77 NW6       30.18R
WASHINGTON CO* CLOUDY    64  57  77 NW8       30.19S
$$

PAZ004>006-010>012-017>019-024>028-033>037-041-042-045-046-049>053-251500-
CENTRAL PENNSYLVANIA

CITY           SKY/WX    TMP DP  RH WIND       PRES   REMARKS
BRADFORD       LGT RAIN  59  58  96 N9        30.17R FOG
DUBOIS         CLOUDY    62  55  77 N12       30.16R
CLEARFIELD     LGT RAIN  63  58  83 NW9       30.15R
JOHNSTOWN      CLOUDY    60  55  83 NW10      30.18R
ALTOONA          N/A    N/A N/A N/A NW9       30.15R
STATE COLLEGE  CLOUDY    68  61  77 NW9       30.12S
WILLIAMSPORT   CLOUDY    70  60  70 NW6       30.07S
SELINSGROVE    CLOUDY    70  61  73 VRB5      30.09R
FT INDIANTOWN  PTSUNNY   72  60  67 N8        30.07R
CAPITAL CITY   PTSUNNY   73  58  59 N12       30.08R
HARRISBURG     PTSUNNY   73  61  65 NW14      30.07R
YORK           PTSUNNY   70  62  76 NW8       30.09R
$$

PAZ038>040-043-044-047-048-054-055-060>062-067>071-251500-
EASTERN PENNSYLVANIA

CITY           SKY/WX    TMP DP  RH WIND       PRES   REMARKS
SCRANTON       LGT RAIN  65  62  90 VRB5      30.08R
MOUNT POCONO   LGT RAIN  61  61 100 VRB7      30.09R
ALLENTOWN      CLOUDY    71  62  73 N3        30.06R
QUAKERTOWN*    PTSUNNY   68  66  94 SE5       30.07R
READING        CLOUDY    71  63  75 N8        30.06R
LANCASTER      CLOUDY    72  63  73 N10       30.08R
COATESVILLE    PTSUNNY   70  63  78 N7G13     30.08R
POTTSTOWN      CLOUDY    70  64  81 N6        30.07R
BLUE BELL      CLOUDY    64  63  94 CALM      30.07S
DOYLESTOWN     CLOUDY    66  63  90 CALM      30.06R
WILLOW GROVE   NOT AVBL
NORTH PHILA    CLOUDY    69  63  81 VRB3      30.07R
PHILADELPHIA   CLOUDY    70  63  78 E3        30.06R
$$




USA.gov is the U.S. government's official web portal to all federal, state and local government web resources and services.